[[{"header":{"parameterUnit":"m.s-1","parameterCategory":1,"la1":30.2991,"la2":30.254,"lo1":-89.0895,"lo2":-89.0444,"dy":0.0017,"dx":0.0017,"nx":28,"ny":28,"refTime":"2025-08-24T21:00:00:Z","depth":0,"parameterNumber":2,"parameterNumberName":"U-component_of_WINDS"},"data":[0,0,0,0,0,0,0,0,0,0,0,0,0,0,0,0,0,0,0,0,0,0,0,0,0,0,0,0,0,0,0,0,0,0,0,0,0,0,0,0,0,0,0,0,0,0,0,0,0,0,0,0,0,0,0,0,0,0,-0.5301,-0.5301,0,-0.5288,-0.5288,-0.5288,-0.5235,-0.5234,-0.5232,-0.5231,-0.522,-0.5221,-0.5222,0,0,0,0,0,0,0,0,0,0,0,0,0,-0.5281,-0.5282,-0.5301,-0.5301,-0.5301,-0.5288,-0.5288,-0.5288,-0.5235,-0.5234,-0.5232,-0.5231,-0.522,-0.5221,-0.5222,0,0,0,0,0,0,0,0,0,0,0,0,0,-0.5281,-0.5282,-0.5301,-0.5273,-0.527,-0.5288,-0.5288,-0.5288,-0.5235,-0.5234,-0.5232,-0.523,-0.522,-0.5221,-0.5222,-0.5267,0,0,-0.5226,-0.5227,0,0,0,0,0,0,0,0,-0.5281,-0.5282,-0.5277,-0.5275,-0.5272,-0.5261,-0.5277,-0.5281,-0.5236,-0.5249,-0.5231,-0.5229,-0.5235,-0.5235,-0.5237,-0.5266,-0.5266,-0.5226,-0.5227,-0.5227,-0.5228,0,0,0,0,0,0,0,-0.5281,-0.5282,-0.5296,-0.5277,-0.5274,-0.5261,-0.5259,-0.5277,-0.5253,-0.5247,-0.5244,-0.5243,-0.5234,-0.5236,-0.5236,-0.5266,-0.5226,-0.5227,-0.5228,-0.5228,-0.5331,-0.5333,0,0,0,0,0,0,-0.5285,-0.5283,-0.5296,-0.5295,-0.5272,-0.5263,-0.5261,-0.5266,-0.5252,-0.5248,-0.5244,-0.524,-0.5235,-0.5235,-0.5236,-0.5287,-0.5227,-0.5229,-0.5229,-0.5329,-0.5331,-0.5333,0,0,0,0,0,0,-0.5285,-0.5287,-0.5297,-0.5288,-0.5288,-0.5265,-0.5272,-0.5267,-0.5269,-0.525,-0.5245,-0.5251,-0.5233,-0.5234,-0.5259,-0.5286,-0.5229,-0.523,-0.5327,-0.533,-0.5332,-0.5391,0,0,0,0,0,0,-0.5284,-0.5287,-0.5304,-0.5289,-0.5289,-0.532,-0.5274,-0.5268,-0.5271,-0.5266,-0.5255,-0.5251,-0.5232,-0.5258,-0.5261,-0.5287,-0.5231,-0.5324,-0.5328,-0.5331,-0.5387,-0.5396,-0.5404,0,0,0,0,0,-0.5284,-0.5321,-0.5305,-0.5307,-0.5309,-0.5322,-0.5322,-0.5298,-0.5274,-0.5291,-0.5278,-0.5252,-0.5283,-0.5261,-0.5264,-0.5291,-0.5322,-0.5327,-0.5331,-0.5383,-0.5394,-0.5403,0,0,0,0,0,0,-0.5341,-0.5319,-0.53,-0.5334,-0.533,-0.5313,-0.5334,-0.5311,-0.5315,-0.531,-0.528,-0.5278,-0.5308,-0.5302,-0.5278,-0.5333,-0.5298,-0.5303,-0.5337,-0.5347,-0.5355,-0.5357,-0.5232,0,0,0,0,0,-0.5357,-0.5369,-0.5349,-0.5381,-0.538,-0.5357,-0.5362,-0.5343,-0.5339,-0.5337,-0.5326,-0.5324,-0.5332,-0.5339,-0.5346,-0.5385,-0.5382,-0.5405,-0.5414,-0.5421,-0.5426,-0.5446,-0.5456,-0.5348,-0.5348,-0.5348,0,0,-0.5391,-0.5381,-0.539,-0.5392,-0.5387,-0.54,-0.5356,-0.5372,-0.5382,-0.534,-0.5363,-0.5355,-0.535,-0.5382,-0.5396,-0.5378,-0.5455,-0.5426,-0.5432,-0.5433,-0.5452,-0.5462,-0.5471,-0.5351,-0.535,-0.535,0,0,-0.5461,-0.5454,-0.5479,-0.5475,-0.5467,-0.5452,-0.5458,-0.5444,-0.5437,-0.5459,-0.5428,-0.5439,-0.5455,-0.5453,-0.5454,-0.5521,-0.5497,-0.5524,-0.5568,-0.5588,-0.5597,-0.5604,-0.5629,-0.5638,-0.5529,-0.5529,-0.5529,0,-0.5505,-0.5523,-0.5495,-0.5513,-0.5515,-0.5476,-0.5502,-0.5499,-0.5495,-0.5497,-0.5477,-0.5495,-0.5489,-0.5521,-0.5537,-0.5538,-0.5545,-0.5526,-0.5598,-0.5605,-0.5611,-0.5635,-0.5644,-0.5532,-0.5532,-0.5531,-0.5531,0,-0.5577,-0.5591,-0.5612,-0.5608,-0.5612,-0.5634,-0.561,-0.5617,-0.5598,-0.5585,-0.5609,-0.5599,-0.5604,-0.561,-0.5592,-0.5638,-0.5627,-0.5603,-0.5567,-0.5626,-0.5647,-0.5656,-0.5537,-0.5536,-0.5535,-0.5534,0,0,-0.5684,-0.5663,-0.5672,-0.5669,-0.5658,-0.5668,-0.5688,-0.5691,-0.5699,-0.5696,-0.5713,-0.5727,-0.5703,-0.5704,-0.5686,-0.5703,-0.5758,-0.5676,-0.5676,-0.5692,-0.5809,-0.5829,-0.584,-0.5741,-0.5743,-0.5744,-0.581,0,-0.5751,-0.5784,-0.5759,-0.5796,-0.5808,-0.577,-0.5788,-0.5783,-0.5771,-0.5779,-0.5766,-0.5777,-0.5745,-0.5745,-0.5761,-0.5748,-0.5781,-0.5742,-0.5757,-0.5758,-0.5761,-0.5851,-0.5872,-0.5935,-0.5818,-0.5819,-0.582,0,-0.5834,-0.5835,-0.5873,-0.5858,-0.5862,-0.5879,-0.588,-0.5888,-0.5882,-0.5871,-0.5872,-0.5848,-0.5867,-0.5831,-0.5857,-0.5831,-0.5836,-0.583,-0.5832,-0.5833,-0.5794,-0.5856,-0.5954,-0.5964,-0.5833,-0.5832,-0.5831,0,-0.5909,-0.592,-0.5944,-0.5943,-0.5926,-0.5938,-0.5932,-0.5923,-0.5927,-0.5928,-0.593,-0.5933,-0.5936,-0.5939,-0.5917,-0.5892,-0.5946,-0.5908,-0.5939,-0.594,-0.5953,-0.5953,-0.6055,-0.5954,-0.5954,-0.5954,-0.5953,0,-0.5987,-0.6013,-0.5977,-0.5993,-0.6019,-0.599,-0.6018,-0.6008,-0.6,-0.6013,-0.598,-0.5993,-0.5962,-0.5972,-0.5955,-0.5979,-0.598,-0.5973,-0.5969,-0.5977,-0.5978,-0.598,-0.5976,-0.5956,-0.5956,-0.5955,-0.5955,0,-0.6077,-0.6054,-0.6078,-0.6059,-0.6055,-0.6076,-0.6061,-0.6074,-0.6059,-0.6076,-0.6078,-0.6055,-0.6064,-0.6042,-0.6049,-0.6037,-0.6072,-0.606,-0.6074,-0.6071,-0.6104,-0.6102,-0.6212,-0.6225,-0.6115,-0.6116,-0.6117,0,-0.6129,-0.6147,-0.613,-0.6136,-0.6131,-0.6141,-0.6144,-0.6115,-0.612,-0.6113,-0.6128,-0.6134,-0.6138,-0.6156,-0.614,-0.6145,-0.6133,-0.6171,-0.6134,-0.6142,-0.6135,-0.6135,-0.6137,-0.618,-0.6181,-0.6182,-0.6183,0,-0.6224,-0.6211,-0.6217,-0.6218,-0.6222,-0.6222,-0.622,-0.6227,-0.6196,-0.6203,-0.6212,-0.6215,-0.6221,-0.6229,-0.623,-0.6224,-0.6199,-0.6195,-0.6202,-0.6212,-0.622,-0.6217,-0.6097,-0.6193,-0.6192,-0.6191,-0.619,-0.619,-0.6297,-0.6311,-0.6301,-0.6308,-0.6303,-0.6301,-0.6313,-0.6299,-0.6306,-0.6308,-0.629,-0.6303,-0.6296,-0.6294,-0.6291,-0.6301,-0.6283,-0.6294,-0.6297,-0.6301,-0.6307,-0.6217,-0.6301,-0.63,-0.63,-0.63,-0.63,0,-0.6391,-0.6382,-0.6389,-0.6386,-0.6392,-0.6366,-0.6362,-0.6368,-0.638,-0.6374,-0.6378,-0.6389,-0.6395,-0.6379,-0.6384,-0.6395,-0.6384,-0.6397,-0.6397,-0.6396,-0.6321,-0.6315,-0.6406,-0.6406,-0.6406,-0.6406,-0.6406,-0.6406,-0.6441,-0.6464,-0.645,-0.647,-0.6461,-0.6473,-0.6473,-0.6471,-0.6467,-0.6479,-0.6484,-0.6473,-0.6464,-0.6467,-0.6472,-0.6467,-0.6471,-0.6489,-0.648,-0.6411,-0.6401,-0.6391,-0.6385,-0.6489,-0.649,-0.6554,-0.6554,-0.6555]},{"header":{"parameterUnit":"m.s-1","parameterCategory":1,"la1":30.2991,"la2":30.254,"lo1":-89.0895,"lo2":-89.0444,"dy":0.0017,"dx":0.0017,"nx":28,"ny":28,"refTime":"2025-08-24T21:00:00:Z","depth":0,"parameterNumber":3,"parameterNumberName":"V-component_of_WINDS"},"data":[0,0,0,0,0,0,0,0,0,0,0,0,0,0,0,0,0,0,0,0,0,0,0,0,0,0,0,0,0,0,0,0,0,0,0,0,0,0,0,0,0,0,0,0,0,0,0,0,0,0,0,0,0,0,0,0,0,0,-3.1779,-3.1778,0,-3.1734,-3.1733,-3.1733,-3.1678,-3.1678,-3.1677,-3.1676,-3.1626,-3.1626,-3.1625,0,0,0,0,0,0,0,0,0,0,0,0,0,-3.1816,-3.1815,-3.1779,-3.1778,-3.1778,-3.1734,-3.1733,-3.1733,-3.1678,-3.1677,-3.1676,-3.1676,-3.1627,-3.1626,-3.1625,0,0,0,0,0,0,0,0,0,0,0,0,0,-3.1788,-3.1815,-3.1779,-3.1746,-3.1742,-3.1734,-3.1733,-3.1732,-3.1679,-3.1677,-3.1676,-3.1675,-3.1627,-3.1626,-3.1625,-3.1645,0,0,-3.1623,-3.1622,0,0,0,0,0,0,0,0,-3.179,-3.1787,-3.1751,-3.1748,-3.1744,-3.171,-3.1728,-3.1703,-3.1679,-3.1703,-3.1676,-3.1674,-3.1655,-3.1652,-3.1646,-3.1643,-3.1641,-3.1623,-3.1622,-3.1622,-3.1622,0,0,0,0,0,0,0,-3.1792,-3.1788,-3.1761,-3.1751,-3.1746,-3.1732,-3.1727,-3.1723,-3.1686,-3.1701,-3.1696,-3.1692,-3.1653,-3.1647,-3.1645,-3.164,-3.1623,-3.1622,-3.1621,-3.1621,-3.1652,-3.1653,0,0,0,0,0,0,-3.1799,-3.179,-3.1762,-3.176,-3.1764,-3.1732,-3.1726,-3.1722,-3.1686,-3.168,-3.1693,-3.169,-3.1649,-3.1646,-3.1643,-3.1664,-3.1622,-3.1621,-3.1621,-3.165,-3.1652,-3.1653,0,0,0,0,0,0,-3.18,-3.1797,-3.1764,-3.1774,-3.1769,-3.1733,-3.1729,-3.1722,-3.1716,-3.1681,-3.1674,-3.1694,-3.1648,-3.1644,-3.1645,-3.1662,-3.1621,-3.162,-3.1649,-3.1651,-3.1653,-3.1707,0,0,0,0,0,0,-3.1801,-3.1798,-3.1806,-3.1775,-3.1768,-3.1769,-3.173,-3.1722,-3.1715,-3.171,-3.168,-3.1673,-3.1647,-3.1647,-3.1645,-3.166,-3.1619,-3.1647,-3.165,-3.1652,-3.1704,-3.1711,-3.1717,0,0,0,0,0,-3.1803,-3.1822,-3.1806,-3.1803,-3.1778,-3.177,-3.1766,-3.1736,-3.1717,-3.1724,-3.1702,-3.1674,-3.166,-3.1648,-3.1644,-3.166,-3.1646,-3.1649,-3.1652,-3.1701,-3.1709,-3.1716,0,0,0,0,0,0,-3.1854,-3.1817,-3.1799,-3.1809,-3.1793,-3.1761,-3.1769,-3.1746,-3.1734,-3.173,-3.1691,-3.1685,-3.1691,-3.1675,-3.1662,-3.1677,-3.1649,-3.1652,-3.1687,-3.1695,-3.1702,-3.1705,-3.1619,0,0,0,0,0,-3.1867,-3.1865,-3.1832,-3.1844,-3.1837,-3.1805,-3.18,-3.1778,-3.176,-3.1752,-3.1729,-3.1712,-3.1703,-3.1698,-3.1689,-3.1701,-3.1694,-3.171,-3.1717,-3.1722,-3.1725,-3.173,-3.1737,-3.1663,-3.1663,-3.1663,0,0,-3.1893,-3.1872,-3.1873,-3.1854,-3.1839,-3.1836,-3.1799,-3.1798,-3.1796,-3.1751,-3.1752,-3.1735,-3.1713,-3.172,-3.1722,-3.1707,-3.1744,-3.1726,-3.1731,-3.173,-3.1734,-3.1741,-3.1748,-3.1665,-3.1664,-3.1664,0,0,-3.1939,-3.1923,-3.1932,-3.1918,-3.1896,-3.1875,-3.1877,-3.1848,-3.1835,-3.1836,-3.1803,-3.1799,-3.1785,-3.1771,-3.1762,-3.1804,-3.1778,-3.1801,-3.1835,-3.1841,-3.1847,-3.1852,-3.1867,-3.1873,-3.1804,-3.1804,-3.1804,0,-3.1973,-3.197,-3.1938,-3.194,-3.1932,-3.1894,-3.1902,-3.1889,-3.1865,-3.1861,-3.1844,-3.1827,-3.1809,-3.1813,-3.1824,-3.1817,-3.1818,-3.1804,-3.1849,-3.1854,-3.1858,-3.1872,-3.1877,-3.1807,-3.1807,-3.1806,-3.1806,0,-3.2013,-3.2011,-3.202,-3.2,-3.1993,-3.1998,-3.1967,-3.1964,-3.1943,-3.1923,-3.1924,-3.1901,-3.1887,-3.1886,-3.1865,-3.1887,-3.1878,-3.1856,-3.1827,-3.1868,-3.1881,-3.1886,-3.1811,-3.181,-3.1809,-3.1809,0,0,-3.2089,-3.2052,-3.2056,-3.2047,-3.2021,-3.2018,-3.2021,-3.2008,-3.2006,-3.1991,-3.1992,-3.1982,-3.1962,-3.1951,-3.1928,-3.1934,-3.1969,-3.1911,-3.191,-3.1922,-3.1992,-3.2009,-3.2015,-3.1952,-3.1953,-3.1954,-3.1994,0,-3.2131,-3.2134,-3.2107,-3.2118,-3.2115,-3.2079,-3.2082,-3.2066,-3.2047,-3.2042,-3.2021,-3.2015,-3.1989,-3.1982,-3.1986,-3.1964,-3.1982,-3.1961,-3.1952,-3.1952,-3.1959,-3.2022,-3.2039,-3.2078,-3.1998,-3.1999,-3.2,0,-3.2179,-3.2168,-3.2179,-3.2153,-3.2151,-3.2154,-3.214,-3.2136,-3.2117,-3.2103,-3.2092,-3.2067,-3.2067,-3.204,-3.204,-3.2026,-3.2021,-3.2009,-3.201,-3.2008,-3.1978,-3.2021,-3.2089,-3.2095,-3.2007,-3.2006,-3.2006,0,-3.2234,-3.2221,-3.2227,-3.2219,-3.2189,-3.2192,-3.218,-3.2159,-3.2154,-3.2141,-3.2137,-3.2124,-3.2117,-3.2108,-3.2079,-3.2062,-3.2083,-3.2053,-3.2071,-3.2072,-3.2076,-3.2076,-3.2145,-3.2074,-3.2073,-3.2073,-3.2073,0,-3.2282,-3.229,-3.2251,-3.2254,-3.2262,-3.223,-3.2239,-3.2223,-3.2205,-3.2204,-3.2172,-3.2171,-3.2134,-3.2129,-3.2107,-3.211,-3.2107,-3.2095,-3.2089,-3.2098,-3.21,-3.2094,-3.209,-3.2075,-3.2075,-3.2074,-3.2074,0,-3.2344,-3.2318,-3.2322,-3.2293,-3.2286,-3.2294,-3.2269,-3.227,-3.2251,-3.225,-3.2248,-3.2216,-3.2209,-3.218,-3.2165,-3.215,-3.216,-3.2149,-3.2167,-3.2163,-3.2183,-3.2181,-3.225,-3.2257,-3.2182,-3.2183,-3.2183,0,-3.2377,-3.2383,-3.2355,-3.2353,-3.2342,-3.2338,-3.2333,-3.2302,-3.2297,-3.2276,-3.228,-3.2271,-3.2261,-3.2251,-3.2226,-3.2215,-3.2203,-3.2227,-3.22,-3.221,-3.2203,-3.2203,-3.2203,-3.2233,-3.2234,-3.2235,-3.2235,0,-3.2438,-3.2425,-3.2418,-3.2408,-3.2402,-3.2392,-3.2379,-3.2379,-3.2344,-3.2341,-3.2334,-3.2327,-3.2312,-3.2303,-3.2288,-3.2274,-3.2249,-3.2244,-3.2248,-3.2257,-3.2267,-3.2262,-3.2183,-3.2243,-3.2242,-3.2241,-3.2241,-3.2241,-3.2486,-3.2489,-3.2471,-3.2465,-3.2453,-3.2442,-3.2443,-3.2423,-3.2417,-3.2404,-3.2386,-3.2381,-3.2362,-3.234,-3.2328,-3.2323,-3.2309,-3.2314,-3.2315,-3.2317,-3.2321,-3.2269,-3.232,-3.232,-3.232,-3.2319,-3.2319,0,-3.2545,-3.2531,-3.2526,-3.2511,-3.2506,-3.2484,-3.247,-3.2467,-3.2464,-3.2449,-3.2441,-3.2433,-3.2424,-3.2399,-3.2388,-3.2389,-3.2377,-3.2387,-3.2386,-3.2383,-3.2335,-3.2333,-3.2397,-3.2397,-3.2397,-3.2397,-3.2397,-3.2397,-3.2575,-3.258,-3.2565,-3.2564,-3.255,-3.2546,-3.254,-3.253,-3.2518,-3.2511,-3.2504,-3.2488,-3.2469,-3.2456,-3.2447,-3.244,-3.2437,-3.245,-3.244,-3.2394,-3.2387,-3.238,-3.2378,-3.245,-3.245,-3.2489,-3.2489,-3.2489]}]]